Wind_Speed
42 40 40 39 38 38 39 39 38 38 37 36 35 35 35 34 35 35 35 34 34 34 35 35 36 36 35 34 33 32 33 33 32 32 32 32 32 31 31 30 29 30 29 28 26 25 25 24 24 25 26 26 27 27 26 24 22 21 19 19 21 21 22 22 17 15 19 20 18 18 18 18 21 24 26 29 29 28 27 27 25 23 23 22 22
42 42 41 40 40 40 40 39 38 38 37 36 36 36 35 35 35 35 35 36 35 35 35 36 36 36 36 35 34 33 34 34 34 33 33 33 33 33 32 32 32 32 31 30 30 29 28 27 27 25 25 26 28 30 31 29 27 25 24 22 23 24 23 24 21 17 20 24 23 22 20 19 21 23 26 29 30 30 29 29 27 26 25 24 23
43 42 41 40 41 40 39 38 38 38 37 37 37 37 37 36 35 35 37 38 37 36 36 36 36 37 36 36 35 35 35 35 35 35 35 35 34 34 34 34 34 33 33 33 33 31 31 31 30 29 27 27 28 30 31 32 31 30 29 27 26 27 26 26 24 21 21 24 25 25 24 23 22 23 25 28 30 31 31 30 29 27 26 25 25
41 40 40 40 40 38 37 37 37 37 37 37 38 38 37 36 35 36 37 37 38 38 38 37 37 37 37 36 36 36 36 36 36 36 36 36 36 36 35 35 35 35 36 35 35 34 34 34 33 32 31 31 31 31 31 32 33 33 33 32 31 30 29 28 28 26 24 23 25 26 26 26 25 23 24 28 30 32 33 32 30 29 28 27 26
39 40 40 39 38 37 37 36 36 37 37 37 37 37 37 36 36 36 36 36 37 38 38 38 37 37 38 38 38 38 38 38 38 38 38 38 38 37 37 36 36 37 37 37 36 36 36 36 36 35 34 34 34 33 33 33 33 34 35 35 34 32 31 30 30 30 28 26 28 28 26 25 26 24 25 28 31 32 33 33 32 31 30 30 29
39 39 39 38 38 38 38 38 38 39 39 37 37 36 36 36 36 36 36 36 37 37 38 38 38 39 40 40 40 40 40 39 39 39 39 39 38 38 38 37 37 37 38 38 38 37 38 38 38 37 36 36 37 36 35 34 34 35 36 36 36 34 32 31 31 31 31 31 31 30 28 26 27 27 27 28 31 32 33 33 33 33 33 33 32
39 39 38 38 38 39 40 41 40 40 39 39 38 37 37 37 37 37 37 37 36 37 37 38 39 40 41 41 41 41 41 40 40 40 40 39 39 38 38 38 38 38 38 39 39 39 39 39 39 38 37 38 39 38 36 36 36 36 37 37 36 33 32 32 32 31 31 31 30 31 31 30 28 29 28 28 30 32 33 32 32 34 35 35 35
38 38 38 38 39 40 41 41 40 39 39 39 39 38 38 38 38 38 38 37 37 37 38 39 40 40 40 41 41 41 40 40 40 40 40 40 39 39 40 39 39 39 39 39 39 39 39 39 39 39 39 39 40 39 38 38 37 37 38 37 35 33 32 32 31 30 30 30 30 30 30 29 29 29 28 26 27 31 34 33 33 33 35 36 36
37 37 37 38 39 39 39 38 38 38 38 38 39 39 39 38 38 38 38 39 39 38 38 39 39 39 40 40 41 40 39 40 41 42 42 41 41 41 40 40 40 40 39 39 38 38 38 39 40 40 40 40 41 41 41 40 39 38 38 37 36 34 33 33 31 30 30 29 29 29 27 27 28 28 28 29 31 34 34 32 32 33 32 34 36
35 36 36 38 39 38 37 37 37 37 37 38 39 39 39 38 38 39 39 40 40 40 39 38 38 39 40 40 40 39 39 40 43 44 44 43 42 41 40 40 40 39 39 38 37 38 38 39 40 41 41 41 42 42 43 42 42 42 41 39 38 36 35 34 33 32 30 29 30 29 26 26 30 31 33 35 36 35 32 31 32 32 28 27 30
36 37 37 38 38 38 38 37 37 38 39 39 39 40 40 39 39 39 40 40 40 40 39 38 38 39 39 40 40 40 41 42 44 45 46 45 44 42 40 40 39 38 38 37 37 38 38 39 39 39 40 41 42 44 44 45 45 45 44 43 42 40 38 36 35 34 32 31 32 30 27 28 33 35 36 36 35 35 35 33 32 30 26 22 23
36 37 37 37 37 37 37 37 37 38 39 40 40 40 40 39 39 39 39 40 40 40 40 40 40 39 39 40 40 41 42 44 45 46 46 46 46 43 41 39 38 37 36 37 38 38 37 38 38 38 39 40 42 43 44 45 47 47 48 47 46 46 45 43 40 36 34 34 33 32 31 32 35 36 36 37 36 36 35 34 32 32 30 27 25
36 36 37 37 37 38 38 37 37 38 38 39 39 38 38 39 40 40 39 39 38 38 40 40 40 40 39 39 40 42 44 45 46 46 46 47 46 45 42 39 38 37 37 37 38 38 38 38 37 38 39 39 40 41 42 44 46 47 49 49 49 49 49 50 48 44 41 38 36 37 38 37 37 40 41 39 37 34 32 33 34 33 32 32 34
35 35 36 37 37 38 38 37 38 38 38 38 37 37 38 39 40 39 38 37 37 38 39 40 40 41 41 41 42 42 43 45 45 46 46 46 46 45 44 41 38 38 38 38 38 38 39 38 38 39 39 39 38 39 40 42 43 44 47 49 50 52 52 53 54 51 48 44 41 43 45 42 41 46 46 40 36 36 36 36 37 37 37 40 42
34 35 36 37 37 38 38 38 38 38 38 38 37 38 39 39 39 39 37 37 38 40 40 39 40 41 42 43 42 41 43 45 44 45 46 46 45 45 45 43 40 38 39 39 39 40 40 39 39 40 40 40 39 38 39 39 39 41 42 45 48 51 53 55 56 54 53 52 50 50 51 48 47 49 47 40 39 42 42 41 42 40 39 38 37
33 34 35 36 37 37 37 37 37 37 37 37 38 39 39 39 40 39 37 37 38 38 39 39 40 40 41 42 42 42 44 44 44 44 45 45 44 44 44 44 41 40 39 39 39 40 40 40 40 40 41 41 40 39 39 38 39 39 40 42 44 46 52 57 56 54 55 56 56 56 56 54 52 51 48 44 42 43 41 40 39 35 30 28 28
32 33 35 36 37 38 38 37 37 37 37 37 38 39 39 40 39 38 37 37 37 37 39 40 40 40 40 40 41 43 44 43 42 43 43 42 43 43 43 43 42 41 41 41 40 40 40 41 41 41 41 42 40 40 39 38 39 40 39 40 40 42 51 52 47 48 53 56 58 59 59 58 55 53 51 48 46 44 38 36 36 32 27 23 22
31 33 34 36 37 38 39 38 38 38 37 37 38 39 39 39 38 37 37 37 37 38 38 38 38 38 39 40 41 42 42 41 39 39 40 40 41 42 42 42 41 41 41 41 41 41 41 42 42 41 43 43 41 41 40 38 40 41 40 39 38 43 50 45 37 41 46 48 53 57 59 60 59 57 55 52 50 47 42 41 39 34 30 26 24
32 32 34 36 38 39 40 40 39 39 38 38 39 39 38 38 37 37 37 37 37 37 35 34 35 37 38 38 39 39 38 36 34 35 37 38 39 40 41 40 39 39 39 39 41 42 41 41 40 41 43 43 42 42 40 39 41 42 42 39 39 45 48 40 35 39 40 39 44 49 54 59 60 60 61 60 57 53 51 51 45 36 33 32 30
33 33 34 36 38 40 40 41 40 39 39 39 39 39 38 37 36 36 36 36 36 35 34 33 33 35 35 35 34 34 34 32 31 31 32 33 35 38 40 41 39 38 38 38 39 39 39 39 39 40 42 43 44 43 41 41 42 42 43 40 40 46 47 41 39 41 38 37 41 44 48 53 55 57 59 60 59 57 56 55 49 43 40 38 36
32 32 33 35 37 39 40 41 41 40 40 39 38 37 37 36 35 35 35 34 34 34 33 33 32 32 32 32 31 31 30 30 31 31 30 30 31 33 38 41 40 39 38 39 38 37 37 37 38 38 39 40 41 40 39 40 40 42 43 43 44 48 47 44 43 37 31 31 37 41 44 47 46 48 51 53 55 56 56 56 54 52 49 45 39
31 31 31 34 35 37 38 39 40 40 39 38 36 34 34 34 34 34 33 33 33 33 32 32 31 30 30 30 30 30 29 30 31 31 31 31 31 32 35 38 38 38 39 37 36 35 35 35 34 33 32 32 33 34 35 36 36 39 42 44 47 49 48 48 44 32 25 31 38 39 41 42 41 42 44 46 49 52 52 54 55 56 56 55 50
27 28 30 32 34 35 36 37 38 37 36 36 34 33 32 33 32 33 32 31 30 30 30 30 29 28 27 26 26 27 28 30 31 32 32 32 32 32 32 33 34 37 37 34 31 29 28 26 24 24 24 25 27 28 30 31 32 35 38 40 43 45 45 47 45 35 29 35 40 40 40 41 40 40 41 43 46 49 50 52 55 57 57 57 56
25 26 28 31 32 33 35 35 36 36 35 35 34 32 31 31 31 32 32 30 28 27 27 27 27 25 24 22 20 21 24 26 28 30 30 30 30 30 30 31 33 34 34 32 28 25 21 20 19 20 21 22 23 25 26 28 30 32 35 36 38 40 40 41 42 37 30 31 35 39 42 43 43 44 45 46 47 48 51 53 52 51 50 50 50
24 26 27 28 30 31 31 32 34 34 33 34 33 31 31 30 29 29 30 29 28 26 25 26 25 24 22 19 17 17 20 21 22 23 24 25 26 27 28 29 30 31 30 29 26 24 23 24 24 25 25 26 26 27 28 30 31 32 34 35 35 37 38 38 38 36 30 28 31 35 39 43 46 48 49 49 48 46 47 46 41 39 43 45 44
25 26 26 27 28 28 29 29 31 31 32 33 33 32 32 31 29 29 29 28 27 26 25 25 24 23 21 20 18 16 15 15 14 13 14 15 16 18 19 19 19 19 19 19 19 19 19 20 21 21 21 21 22 23 24 25 26 27 28 29 30 31 32 33 33 32 32 32 32 33 37 41 44 47 48 48 46 43 42 40 36 37 44 45 42
25 25 25 25 26 27 28 27 27 27 28 30 31 31 31 31 29 28 28 27 25 24 23 23 22 21 19 19 18 16 14 14 13 12 11 11 10 10 10 9 8 8 8 10 11 11 12 13 14 14 15 16 17 17 18 19 21 22 23 24 26 27 27 28 30 31 33 35 35 36 39 40 42 44 46 45 44 41 40 40 39 40 45 45 40
24 24 24 25 25 26 26 26 26 25 23 23 23 23 24 27 27 28 28 27 25 24 22 22 23 22 21 20 18 17 15 15 15 14 13 12 12 10 9 7 7 6 6 6 7 7 8 9 9 9 10 12 13 14 16 18 21 23 23 24 26 27 27 28 28 30 32 33 35 37 39 40 41 43 44 43 42 40 38 40 42 42 43 41 36
21 22 23 24 24 24 24 25 26 25 22 19 17 15 15 18 21 24 26 28 27 26 25 25 25 23 22 23 23 21 19 18 16 15 13 11 10 9 8 7 6 5 3 2 1 1 2 4 7 9 12 15 17 19 21 23 24 26 27 27 28 28 28 28 28 29 30 31 34 36 37 39 41 42 42 42 42 40 38 39 41 40 40 40 38
18 20 22 22 23 23 24 25 26 26 24 23 20 16 11 11 15 18 21 23 25 26 26 26 25 25 24 23 23 22 21 20 17 15 13 11 9 9 8 7 6 6 7 6 5 6 8 11 13 15 16 17 18 19 20 22 24 26 28 29 29 28 28 28 28 29 31 32 35 37 38 39 40 41 40 40 40 39 38 39 41 40 38 37 36
15 16 18 20 22 25 26 26 25 26 25 25 25 22 19 14 10 11 14 17 19 21 22 22 22 25 25 23 21 19 19 18 17 15 13 12 11 10 10 9 10 10 10 9 10 11 14 15 16 15 15 14 14 16 18 20 22 24 25 27 27 28 28 28 29 31 32 34 36 38 40 40 40 41 40 38 38 37 35 37 41 40 39 38 36
14 14 15 18 22 25 26 26 27 27 26 26 27 28 27 26 23 19 16 16 17 17 18 19 19 21 23 24 24 23 21 19 17 15 14 13 12 12 12 12 12 12 11 11 13 15 15 15 14 14 14 14 15 16 17 19 20 20 21 22 24 26 27 29 31 32 33 34 35 37 40 41 41 41 40 38 37 35 33 33 35 36 36 36 35
14 15 17 20 22 24 26 27 28 28 28 28 28 29 30 30 28 27 26 25 24 23 22 21 22 22 21 21 22 22 21 18 16 15 14 14 13 13 13 13 13 13 12 13 14 15 15 14 13 14 14 14 15 16 17 17 18 19 20 21 22 25 27 29 31 32 32 33 35 37 39 41 41 41 39 37 34 32 30 29 31 32 31 29 30
15 18 21 24 24 24 25 26 26 27 28 28 28 27 29 31 32 30 27 25 25 24 24 23 22 22 22 20 19 19 18 17 16 16 15 14 14 13 14 14 14 14 14 14 14 14 14 13 13 13 13 13 13 15 16 17 18 20 21 21 22 24 27 29 31 32 33 34 35 36 38 40 40 39 36 32 29 28 28 27 26 27 27 29 31
17 19 22 25 26 25 25 26 27 26 26 26 27 28 27 28 29 28 26 24 23 22 22 22 21 20 21 20 19 19 19 18 18 17 16 15 15 14 14 15 15 15 14 13 13 13 13 12 12 11 10 11 13 14 15 17 18 18 19 20 22 24 27 29 30 32 32 33 34 35 37 39 38 36 33 30 25 23 23 23 24 26 28 30 28
21 21 22 24 26 27 26 26 27 27 27 27 28 29 28 26 26 26 26 25 25 24 23 23 22 21 21 21 20 20 20 19 18 17 16 16 14 13 13 15 14 13 13 12 12 13 12 10 9 9 9 10 12 13 14 15 16 16 16 17 20 23 26 28 29 30 31 31 33 35 36 36 35 31 27 26 25 24 21 18 17 19 24 29 26
24 24 24 24 26 27 27 26 26 28 30 29 29 28 27 26 26 27 26 25 25 25 24 25 25 23 22 21 20 20 20 19 18 18 18 16 15 14 14 14 13 12 12 12 12 12 11 9 8 8 9 10 12 13 13 14 14 14 14 15 18 20 23 25 26 27 28 29 30 32 33 33 33 29 22 16 12 10 7 4 12 18 15 2 12
22 23 25 28 28 28 28 28 27 28 28 28 27 27 27 26 26 25 25 24 24 24 24 24 24 24 22 20 19 18 18 17 17 17 16 15 15 15 14 13 13 13 12 12 11 11 10 8 8 8 10 11 11 12 13 13 13 13 14 16 17 19 20 22 23 25 25 26 28 29 30 30 30 29 26 26 27 24 21 22 28 36 40 35 28
21 22 25 29 30 29 29 29 29 28 27 26 27 27 28 27 26 25 24 24 24 24 23 23 22 22 22 20 17 16 16 16 15 14 14 14 14 14 13 13 14 13 12 11 10 9 9 8 9 10 10 11 11 11 12 13 13 13 14 16 17 18 18 20 21 22 23 24 25 27 28 29 29 30 29 29 28 27 26 28 32 37 41 41 39
23 24 25 28 30 29 28 28 30 29 28 26 26 26 25 26 26 25 25 24 24 23 23 23 22 20 19 17 14 13 14 15 14 13 13 13 13 13 13 14 13 12 10 9 8 8 8 9 10 11 11 11 12 12 12 13 13 13 14 15 16 16 16 17 18 19 20 21 22 24 26 27 29 32 33 32 31 29 27 28 31 35 39 42 42
24 26 26 28 31 31 28 26 26 27 27 25 24 23 23 24 25 26 25 24 23 22 22 21 20 19 16 14 12 11 13 15 14 13 13 14 14 13 12 12 11 10 9 8 8 8 9 10 10 11 10 10 10 10 11 12 12 13 14 15 15 15 15 16 17 17 17 17 18 20 22 23 26 29 30 29 31 33 33 32 32 33 36 38 39
26 27 27 28 30 31 29 26 25 27 27 26 25 25 24 24 25 25 24 23 23 22 21 20 18 17 16 16 15 15 17 17 15 14 14 13 12 11 9 9 9 8 7 6 7 8 9 9 9 9 8 8 9 9 10 11 11 12 13 14 14 14 15 15 15 15 15 15 16 17 18 19 21 24 25 26 28 30 32 33 33 32 32 31 31
28 29 29 30 30 30 29 28 28 29 29 28 28 28 28 27 27 27 26 25 24 23 22 20 18 17 16 16 16 17 18 18 17 16 14 12 10 8 7 6 6 6 5 4 5 6 7 7 7 7 7 7 8 9 10 10 10 12 13 14 13 14 15 16 15 14 14 14 14 16 16 17 18 20 21 23 25 26 26 27 29 30 30 28 27
31 30 30 31 31 29 29 29 30 29 29 30 30 29 29 29 29 28 28 27 25 24 23 22 21 20 19 17 17 18 18 18 18 17 15 13 12 10 7 6 5 5 5 5 5 5 6 6 5 5 4 4 6 7 8 8 9 10 11 13 13 13 13 14 15 14 13 12 12 14 15 16 16 17 17 18 20 22 23 24 26 26 26 25 24
30 30 30 30 30 29 29 29 29 29 30 31 30 29 29 29 28 27 26 25 24 23 23 23 23 23 22 21 20 20 19 18 18 16 15 13 12 11 10 8 6 5 6 6 6 6 6 6 5 5 4 5 6 7 7 7 7 7 8 9 11 11 10 10 11 12 11 11 11 11 12 14 15 15 15 15 16 18 19 21 22 23 22 22 22
29 29 29 29 28 28 27 27 28 29 29 30 29 28 28 27 27 26 25 24 24 23 23 23 23 23 22 21 21 20 19 18 17 16 14 13 12 11 11 11 9 8 8 8 7 7 7 7 6 7 7 8 9 9 10 10 9 8 7 7 8 9 8 6 6 8 9 9 10 10 10 10 11 12 11 10 11 12 13 14 15 16 17 18 18
30 29 28 28 28 27 27 27 28 28 28 27 27 27 26 26 26 25 24 24 25 25 24 25 25 24 23 23 22 21 20 19 18 17 16 14 13 12 12 12 11 10 10 9 8 8 8 8 8 8 9 9 10 11 13 13 13 12 11 9 9 9 8 5 4 5 6 6 7 8 8 8 7 9 10 9 6 5 7 8 9 10 11 12 14
32 30 28 27 27 26 26 26 27 27 26 26 26 26 25 25 25 25 24 24 25 24 24 26 26 25 24 23 22 21 21 20 19 18 17 15 14 13 13 13 13 12 11 11 10 10 10 10 9 9 9 9 10 11 12 12 13 13 13 11 11 11 10 7 5 5 6 5 4 4 5 5 4 5 8 7 3 0 2 4 5 6 8 10 12
34 32 30 28 28 26 25 25 25 25 24 24 25 25 25 25 25 24 24 24 25 26 26 26 26 25 24 23 22 21 21 21 20 19 18 17 16 15 14 13 13 13 13 13 12 12 11 11 11 10 10 10 10 10 10 11 11 11 11 11 11 10 9 9 8 7 7 5 4 3 5 5 3 1 2 2 1 1 3 4 5 6 8 10 12
35 34 31 30 28 26 25 26 25 24 26 28 28 28 28 28 27 25 24 24 25 26 27 27 25 24 24 23 22 22 22 21 21 20 19 19 19 19 18 16 16 16 16 15 14 14 13 13 13 12 11 11 11 11 11 10 10 10 10 10 10 9 8 8 9 9 9 8 6 5 5 5 4 4 4 5 5 5 6 7 7 8 10 11 13
35 35 33 31 30 28 27 27 26 26 29 32 33 31 31 31 29 28 28 27 26 25 25 25 24 24 23 22 22 23 22 22 21 21 22 22 22 22 21 21 20 19 19 18 17 16 15 15 15 14 13 12 12 12 12 12 11 11 10 9 9 8 8 8 8 8 9 9 8 7 7 7 6 5 3 3 3 5 7 8 9 10 11 12 14
Wind_Direction
197 198 200 201 202 203 204 205 207 208 209 211 212 213 214 214 215 214 215 216 217 218 217 216 216 216 216 218 219 220 221 222 224 224 224 226 227 229 230 230 231 232 233 234 233 233 234 235 234 232 229 227 225 225 226 230 235 237 242 244 239 236 232 225 225 244 248 243 240 242 244 248 249 245 241 239 235 232 233 237 241 243 244 245 246
197 198 199 201 203 204 205 205 206 208 209 211 212 213 214 215 215 214 214 216 216 216 216 216 216 216 216 218 219 220 221 221 222 222 223 225 226 228 229 229 230 230 231 233 233 233 233 235 236 235 232 231 230 228 227 228 231 235 238 240 239 236 233 230 228 236 248 248 245 245 246 247 249 246 242 239 235 231 231 234 238 241 244 246 247
198 198 199 202 204 204 205 205 206 208 209 211 213 214 214 215 215 214 215 215 215 216 216 215 215 216 216 218 220 221 221 222 222 221 222 224 225 226 227 227 228 228 229 231 232 232 232 234 236 235 233 234 235 233 231 230 231 235 237 238 240 239 236 235 234 235 244 251 250 247 245 246 247 245 242 239 236 233 233 237 240 241 241 242 244
197 198 200 203 204 204 205 205 206 208 209 212 214 215 215 215 215 215 215 215 216 216 217 216 216 216 217 219 220 221 222 222 221 221 223 224 225 226 226 226 227 228 229 231 232 231 230 232 236 236 233 234 237 237 235 234 234 235 238 239 240 241 240 239 239 241 244 251 254 251 247 245 246 245 241 237 235 235 237 240 243 243 241 240 242
197 198 200 202 203 204 205 205 206 208 210 212 214 216 216 216 216 216 216 216 216 217 217 218 218 218 219 220 221 222 222 222 221 221 223 224 226 227 227 227 228 229 230 232 232 231 231 232 235 235 232 233 236 238 237 237 237 237 239 240 240 242 243 241 241 242 243 247 253 256 252 246 245 244 239 235 236 237 239 241 244 244 243 241 242
196 198 200 201 202 203 204 205 207 209 210 212 214 216 217 217 217 217 217 216 216 217 217 218 218 219 221 222 222 223 223 222 222 222 223 224 225 226 228 229 230 230 231 232 233 232 232 234 236 234 232 232 235 238 238 238 238 237 239 241 241 241 242 242 242 241 242 245 250 254 253 248 244 242 239 237 238 239 240 241 243 244 243 242 241
196 197 199 200 202 204 204 205 207 208 210 211 213 215 216 217 218 218 218 218 217 217 218 218 219 220 221 222 222 223 223 222 222 223 224 224 224 225 227 229 231 232 233 233 234 234 234 236 237 235 233 234 236 238 239 239 238 238 239 241 241 240 240 241 241 240 241 244 246 249 251 250 247 244 243 241 241 242 241 240 240 241 240 240 240
196 197 198 200 203 205 205 206 207 208 210 211 213 214 216 217 217 218 218 218 218 218 218 219 219 220 221 222 223 223 222 222 223 223 224 224 225 225 226 228 230 232 233 234 234 235 236 237 238 238 237 237 238 240 240 239 239 239 240 241 239 239 239 239 239 239 240 242 245 247 248 249 248 247 245 241 237 238 238 236 237 238 238 238 240
197 197 198 202 204 206 206 206 207 208 209 211 213 214 215 216 217 218 218 219 219 219 220 220 220 220 222 223 224 223 222 222 223 224 224 224 225 226 227 227 229 231 233 235 235 236 236 238 239 240 240 240 241 243 243 243 241 240 241 240 238 237 237 237 236 236 237 240 243 245 245 245 244 242 240 235 233 236 237 234 236 240 240 240 241
197 198 200 203 205 206 206 206 207 208 209 211 213 214 215 216 217 217 218 219 219 220 220 221 221 221 222 223 224 224 223 225 226 226 226 225 225 226 227 228 229 230 232 234 236 237 238 239 240 241 242 243 244 245 246 246 245 245 245 244 240 237 234 234 234 232 233 236 239 239 239 240 240 237 237 237 236 236 236 233 235 238 239 240 244
197 199 202 204 205 205 206 206 206 207 209 211 213 214 215 215 216 218 218 219 219 220 220 221 221 222 223 224 225 224 225 227 228 228 228 228 227 226 228 230 230 230 232 233 236 238 239 240 241 242 243 243 244 246 247 247 247 248 249 248 246 242 238 234 233 231 230 233 238 237 235 238 240 238 238 239 238 235 234 232 232 233 230 231 241
198 200 202 204 205 205 206 206 206 207 209 210 212 214 214 215 217 218 218 219 219 219 220 220 221 222 223 225 226 226 227 229 229 230 230 230 229 228 228 231 232 233 233 234 236 239 240 241 243 243 243 244 245 246 246 247 248 249 250 250 249 248 246 243 239 234 231 233 237 237 235 238 242 241 238 238 237 235 234 232 230 229 227 226 231
198 200 202 204 204 205 206 206 207 208 210 211 213 213 214 216 217 218 219 219 219 220 221 221 221 222 223 225 226 227 229 230 231 231 232 233 232 230 229 231 233 234 235 236 237 239 241 242 244 244 245 245 246 246 246 247 249 249 250 250 249 249 249 249 247 243 239 236 237 239 240 238 240 243 242 239 236 234 233 232 231 230 228 229 232
198 200 202 203 205 205 205 206 207 209 210 211 212 213 214 217 218 219 220 220 220 221 222 222 222 222 223 225 227 229 230 232 232 232 233 234 234 232 231 231 233 236 237 238 239 240 242 243 244 246 247 247 246 246 246 247 248 249 249 248 248 248 249 249 249 247 244 242 240 243 246 243 242 247 248 242 236 234 232 232 232 231 230 234 238
198 199 201 202 204 204 204 205 207 208 209 210 211 213 215 217 218 219 219 220 221 222 223 223 224 223 223 225 228 230 232 233 233 234 234 235 235 235 233 232 233 236 238 240 241 242 243 244 245 247 249 249 248 247 248 248 248 248 248 248 248 248 248 248 247 246 245 244 244 246 249 249 248 251 251 246 241 240 239 238 238 236 235 238 242
199 199 200 201 203 203 203 204 206 207 208 208 210 212 214 216 217 217 218 220 222 224 224 225 226 225 225 225 227 231 234 234 234 235 236 236 236 235 234 234 234 236 239 241 242 244 245 246 247 249 250 251 251 250 250 250 249 249 248 249 250 250 251 251 249 247 246 247 247 248 251 251 251 252 252 249 246 245 242 241 241 238 236 238 240
200 199 200 201 202 202 203 203 204 206 207 207 209 212 213 216 216 216 216 219 221 223 224 226 226 227 226 225 226 230 234 235 235 235 237 236 235 235 234 234 235 237 240 242 243 245 246 247 248 249 251 253 253 253 253 251 250 250 249 251 252 252 255 255 252 250 249 249 249 250 252 253 252 252 253 251 249 246 239 236 236 231 227 230 235
203 201 200 201 201 201 203 203 203 205 206 207 209 212 213 215 216 215 216 218 221 223 225 226 228 228 228 227 227 229 233 235 236 236 237 237 236 235 234 234 236 237 240 243 245 246 247 248 249 250 252 254 255 255 255 252 251 250 250 252 253 254 256 257 255 254 254 252 252 252 253 254 252 252 252 251 250 246 238 235 235 227 222 226 231
206 203 201 201 201 202 203 203 204 205 205 207 210 212 213 215 215 215 216 219 222 225 226 228 229 230 231 231 231 231 233 235 236 236 237 237 237 237 235 235 236 238 241 243 246 248 249 250 251 251 254 256 257 256 256 253 252 252 252 251 252 255 259 260 258 257 255 253 253 252 252 253 252 250 250 249 248 245 240 239 237 228 224 227 228
208 206 203 201 201 202 202 203 204 205 206 208 210 212 213 214 214 214 216 218 222 224 226 228 230 232 233 234 234 233 233 234 236 236 236 236 236 237 236 234 236 238 241 244 246 249 251 252 253 254 256 258 259 259 258 256 254 254 253 250 251 257 262 264 261 259 257 256 256 255 254 254 252 250 249 247 246 244 242 240 237 231 228 228 225
210 207 204 201 201 202 202 203 204 206 207 209 210 211 212 212 212 213 214 217 220 223 224 226 230 233 234 234 234 235 235 235 235 236 236 235 234 234 234 234 236 238 241 243 245 248 251 253 255 256 258 261 262 263 262 261 260 258 256 255 257 262 266 266 265 264 263 264 263 261 259 258 254 251 249 246 245 243 241 239 237 233 231 229 226
210 207 204 202 201 202 202 203 204 206 207 208 208 209 211 211 211 212 213 215 217 220 222 225 228 231 234 234 234 235 236 237 238 238 237 236 235 234 234 235 238 239 240 242 244 247 251 254 257 259 261 264 266 267 268 268 266 264 263 263 265 266 267 267 268 269 267 266 267 266 263 261 258 254 251 248 246 245 242 240 238 235 233 232 229
210 207 204 202 202 202 202 203 203 204 205 206 206 207 208 209 210 210 211 212 215 218 221 223 226 229 232 233 234 235 236 238 239 239 239 238 238 238 238 239 240 239 239 241 245 248 252 256 258 261 263 265 267 268 269 270 270 269 270 272 273 273 273 273 273 273 265 261 265 268 267 264 262 260 256 252 249 246 243 242 239 237 236 235 232
211 206 203 202 201 201 201 201 202 202 203 203 204 204 205 205 206 208 209 210 212 215 218 219 221 224 226 226 227 230 232 233 233 234 235 235 236 237 237 236 236 236 237 240 243 247 253 258 261 264 266 268 269 271 272 273 276 278 279 280 282 285 287 285 282 280 270 256 254 259 262 264 263 262 260 257 253 250 246 244 240 236 237 239 236
212 208 204 202 200 199 198 199 200 201 201 201 201 201 201 201 202 204 206 207 209 212 214 215 217 218 216 214 212 215 218 221 223 227 230 231 232 234 236 236 236 238 241 246 251 258 264 268 270 271 272 274 276 278 280 281 284 286 287 289 292 293 294 292 288 285 278 265 257 256 258 261 262 262 263 261 259 255 250 245 239 233 234 239 238
211 208 205 201 199 196 194 195 196 198 198 199 200 200 199 199 199 200 202 204 207 209 211 211 212 212 210 206 203 200 198 199 202 207 213 219 223 227 230 234 236 239 245 250 256 261 264 268 272 276 280 285 288 292 295 296 297 299 298 299 301 301 300 297 292 287 283 278 274 269 266 267 268 268 268 266 262 258 251 243 233 227 229 233 231
206 204 202 199 195 192 190 189 190 192 194 196 198 199 199 198 198 198 199 201 204 207 207 206 206 205 201 197 192 185 177 171 167 164 167 173 176 182 188 195 202 212 224 235 244 254 264 274 284 291 297 301 302 305 310 312 315 316 315 315 314 312 308 303 297 292 288 285 283 281 279 278 276 274 272 269 264 259 250 239 229 224 224 225 223
202 199 197 193 190 188 187 183 180 180 183 187 190 192 195 197 199 200 201 202 203 203 203 203 204 203 197 186 174 163 158 159 156 151 152 156 155 155 163 171 182 197 213 230 249 264 276 287 300 310 318 321 323 328 332 335 338 337 334 331 327 322 317 312 305 299 295 292 290 288 285 283 280 276 274 271 267 262 251 237 229 225 219 215 215
195 192 190 187 185 182 177 174 172 169 165 162 160 165 181 194 198 201 204 206 207 208 206 205 205 203 193 182 173 164 156 153 154 154 152 154 155 158 164 168 173 177 177 179 215 272 324 348 359 4 3 2 359 356 352 349 347 345 341 336 331 326 322 317 310 304 300 297 292 289 287 284 280 277 274 270 267 263 253 238 230 225 217 211 211
185 184 182 179 176 170 165 164 165 161 154 146 139 131 137 171 190 197 202 205 206 209 210 207 203 199 189 179 176 174 164 153 151 152 150 147 147 144 140 137 133 123 111 102 93 70 50 41 34 25 18 13 5 357 352 348 344 342 341 338 334 330 326 320 314 308 304 298 292 288 285 282 279 276 273 268 265 262 254 241 232 226 219 213 213
173 174 173 170 166 162 159 157 155 151 146 142 136 123 108 104 125 161 181 189 194 199 201 196 193 193 187 173 161 160 157 151 148 148 143 139 136 130 125 119 112 103 93 83 72 59 47 41 37 28 19 12 3 354 349 347 342 338 338 337 336 335 331 326 323 319 311 303 297 292 287 282 280 277 274 269 266 263 254 241 233 227 221 215 212
162 157 156 157 157 156 155 151 147 143 138 135 133 126 113 98 90 95 115 137 150 160 167 165 163 168 171 164 153 148 146 143 142 140 136 134 134 128 121 112 101 89 79 70 64 57 48 42 36 26 18 12 5 358 352 347 343 341 340 338 339 340 338 334 331 325 317 310 304 298 292 287 283 280 276 271 268 265 257 244 232 226 223 220 216
154 148 145 145 147 148 148 145 143 142 139 135 132 129 122 114 104 97 98 105 113 118 125 133 137 139 141 144 144 141 137 134 134 133 133 135 135 128 119 109 96 82 71 64 60 55 49 43 36 26 19 13 3 354 350 347 345 346 345 341 338 338 339 338 335 329 322 317 311 304 299 294 289 285 279 272 266 264 261 253 239 227 222 219 215
150 149 148 146 144 143 143 143 142 141 139 137 134 131 128 127 123 118 111 106 106 108 111 118 126 129 128 129 131 132 132 132 132 132 133 132 129 124 119 108 93 79 67 61 57 54 48 42 34 25 17 10 360 352 350 349 349 350 348 345 341 340 340 341 339 334 329 326 320 315 311 306 299 291 284 275 268 264 261 256 245 233 223 217 214
141 142 146 146 143 141 141 142 141 139 138 136 134 131 130 129 127 126 123 118 113 110 111 116 122 125 125 125 126 127 128 129 129 129 129 127 125 124 117 103 88 77 69 62 57 54 49 39 29 19 10 3 358 354 352 352 352 353 351 347 345 345 345 345 343 340 338 335 332 329 327 323 316 305 292 281 273 269 266 262 254 242 231 225 217
133 134 137 139 139 139 140 140 140 138 136 134 133 131 129 128 125 121 119 117 115 113 114 117 119 119 117 117 119 122 124 126 127 124 121 121 123 122 113 99 88 77 68 59 53 51 48 38 24 14 7 2 0 360 1 359 356 355 356 352 350 351 350 348 347 347 345 343 342 342 342 341 339 331 312 292 279 273 272 270 266 259 248 235 214
130 131 133 135 135 136 135 135 135 135 133 132 131 129 127 126 124 120 117 115 115 115 118 121 124 122 118 115 116 118 118 119 118 114 111 111 111 108 103 97 89 79 66 53 47 47 45 36 24 16 12 10 8 7 7 5 360 359 0 358 357 358 357 355 357 359 357 355 354 354 354 355 358 2 4 3 353 332 324 50 75 62 46 59 171
124 129 132 133 132 130 130 130 130 130 130 129 127 125 124 123 122 120 117 116 116 118 122 126 127 128 127 122 117 116 116 116 114 109 104 102 98 95 93 90 82 72 60 50 46 48 45 36 30 27 24 22 20 16 15 14 11 9 7 3 2 3 1 2 6 10 9 8 7 7 7 8 11 18 30 45 55 60 65 77 84 80 72 69 76
114 120 125 128 127 126 126 126 124 123 122 123 123 125 127 127 126 123 119 116 115 116 120 121 121 126 130 128 124 122 117 109 102 98 96 94 90 86 82 78 72 64 57 52 50 50 47 42 40 41 39 34 31 27 25 24 23 19 15 12 9 6 4 6 12 15 15 17 20 23 25 25 28 33 37 43 49 58 67 77 85 91 92 89 87
105 108 113 117 119 120 120 120 120 119 118 120 123 126 128 128 127 125 121 118 115 114 115 114 114 121 128 129 127 124 113 100 94 95 96 92 87 79 72 69 67 64 61 61 58 54 51 47 47 48 45 39 36 35 33 33 34 32 28 25 21 14 11 14 16 18 21 25 30 35 38 41 46 50 52 52 53 53 56 64 74 85 93 98 100
102 101 103 107 111 113 111 110 112 115 116 116 116 117 121 126 127 124 120 116 113 111 109 108 110 116 119 118 115 111 105 101 101 102 97 90 84 79 73 71 71 70 68 69 66 61 58 54 51 49 44 39 38 39 37 37 40 40 36 34 30 24 22 22 20 20 25 31 35 37 42 49 57 60 61 64 68 70 68 66 69 76 84 91 98
100 97 97 100 103 105 104 102 104 105 105 103 101 101 107 116 117 113 107 103 101 100 99 101 107 112 113 110 105 100 97 97 97 95 92 88 85 81 78 74 72 71 72 74 70 64 62 60 55 49 44 38 36 36 35 35 38 39 36 33 29 25 23 21 19 18 23 30 37 43 46 51 62 70 73 74 77 81 83 83 83 85 87 90 97
96 94 94 95 96 97 97 98 98 96 95 94 93 95 99 103 102 98 95 93 92 92 93 95 101 108 109 109 105 98 91 89 86 83 81 81 78 76 80 83 74 64 62 70 70 63 61 59 52 44 38 30 25 29 33 34 38 41 37 29 23 20 17 14 12 14 19 27 39 50 52 53 61 72 79 84 87 89 91 92 95 97 99 102 104
94 93 92 92 92 91 92 93 94 93 92 93 92 92 95 95 94 93 92 90 88 89 89 91 96 99 99 98 97 92 86 84 84 81 79 78 75 75 83 96 91 70 58 64 69 66 61 57 49 42 35 25 25 33 38 39 41 42 37 26 17 13 15 15 11 9 13 22 33 45 52 57 64 71 77 85 94 98 100 101 104 107 111 114 115
94 92 91 90 89 88 89 90 91 91 91 91 89 87 89 90 90 90 90 89 88 87 87 88 91 92 90 88 87 85 82 82 83 82 80 79 76 76 81 90 94 86 73 70 72 74 71 67 62 63 66 63 58 56 54 49 46 43 34 21 9 3 9 19 16 10 12 18 25 36 49 56 62 67 72 78 86 94 101 109 114 117 121 123 124
92 91 90 89 88 87 87 88 89 89 88 88 87 85 85 86 86 87 87 87 87 86 84 85 87 86 84 83 82 80 79 79 79 78 76 75 75 78 83 88 91 87 79 76 77 78 76 73 71 75 79 79 76 72 68 66 65 60 49 35 22 16 20 27 20 13 17 23 25 29 39 49 55 56 55 58 69 79 87 99 111 118 121 125 128
94 91 90 89 89 88 87 87 87 86 86 86 86 86 85 85 85 85 84 84 84 83 82 83 84 82 81 81 81 79 77 76 75 74 73 72 71 76 83 89 90 86 81 81 84 84 80 77 76 79 80 79 77 75 72 70 69 67 64 58 48 43 43 42 27 18 20 28 36 39 35 35 38 33 24 22 37 67 79 88 102 117 130 139 145
99 95 93 91 90 89 88 87 87 87 86 87 87 86 86 85 84 83 82 82 81 80 79 80 81 80 79 78 79 78 75 73 71 72 72 69 69 73 81 87 88 85 83 84 85 82 77 73 72 72 74 73 72 70 67 65 65 65 64 62 55 49 45 39 33 31 30 29 34 33 26 24 17 3 3 7 9 106 140 127 128 142 153 162 167
98 95 92 90 88 87 87 87 87 88 88 88 87 86 86 85 83 82 81 81 80 79 79 79 79 78 78 77 77 77 74 70 67 66 66 67 69 72 77 84 87 84 81 81 81 79 75 71 67 66 65 63 62 60 57 55 55 55 54 52 50 48 44 38 36 37 37 35 31 18 18 30 52 62 35 42 66 178 179 171 174 181 183 184 183
92 91 89 87 86 85 86 86 87 89 91 92 90 88 88 87 84 83 81 80 79 79 79 78 78 77 77 77 76 76 74 70 66 63 64 68 73 74 75 78 81 79 77 75 74 75 73 69 66 63 60 56 54 52 48 45 46 46 44 44 43 41 39 36 35 33 32 31 35 42 45 53 77 114 129 132 139 153 164 169 171 175 181 186 186
84 85 85 84 84 84 84 84 85 88 92 93 92 90 89 87 85 83 82 81 79 79 79 78 77 77 75 75 75 76 75 73 70 67 67 69 73 76 76 75 76 75 73 70 68 68 68 65 62 61 58 54 52 50 46 44 44 45 45 46 46 44 42 39 37 35 32 27 26 34 46 55 65 77 94 129 159 168 171 173 173 173 175 177 176
Height
758 762 765 768 772 774 777 779 782 786 788 791 794 795 798 799 801 803 805 807 809 810 812 814 815 817 819 820 822 823 825 827 828 830 831 832 833 834 835 836 836 837 838 839 840 840 841 841 841 842 842 843 843 844 844 844 844 844 845 845 844 845 845 845 844 843 842 843 843 844 844 844 843 843 843 843 844 845 845 846 846 847 847 847 847
754 758 761 765 767 770 773 776 779 783 786 788 791 793 795 796 798 801 802 804 806 807 809 810 812 814 816 817 819 820 822 824 825 827 828 829 830 831 832 833 834 834 835 836 836 837 838 838 839 839 840 840 840 840 840 841 842 842 842 842 842 842 842 842 842 842 841 840 841 842 842 842 841 840 841 841 841 842 842 842 843 843 843 844 844
750 754 758 761 763 767 770 773 776 779 782 785 787 789 792 794 796 798 799 801 803 804 806 807 809 811 813 814 816 817 819 821 823 824 825 826 827 828 829 830 830 831 832 832 833 834 835 835 835 836 837 837 837 837 837 838 839 839 839 839 839 839 840 840 840 840 839 838 839 839 839 839 838 838 838 838 839 840 839 839 840 840 840 840 841
748 752 755 758 761 765 768 770 773 776 779 781 784 786 789 791 793 795 796 798 800 802 803 805 807 808 810 811 813 814 816 817 819 821 822 823 824 824 825 826 827 827 828 828 830 831 831 831 831 832 834 834 833 834 834 835 836 836 836 836 836 837 838 838 838 838 837 836 836 836 837 837 836 837 837 837 837 837 837 837 837 837 838 838 838
745 748 751 755 758 762 765 767 770 772 775 778 781 784 787 789 791 792 794 795 797 798 800 802 804 805 807 808 809 811 812 814 816 817 818 819 820 821 822 823 823 824 824 825 826 827 827 827 827 828 830 830 830 831 831 832 833 833 833 833 833 834 836 836 836 836 836 834 833 833 834 834 834 834 835 835 835 835 835 835 835 835 835 835 835
741 744 748 752 755 758 760 763 765 768 771 775 778 781 784 786 788 790 791 793 794 795 797 799 800 802 803 804 806 807 808 810 812 813 814 815 816 818 819 819 820 820 821 822 822 823 823 823 823 825 826 826 826 827 828 829 829 830 830 830 831 832 833 834 834 834 833 832 831 831 831 831 831 831 832 833 833 832 832 832 832 832 832 832 832
736 740 744 747 750 753 755 757 760 763 767 771 775 778 780 783 785 786 788 790 791 793 794 795 796 798 799 801 802 803 805 807 808 809 811 812 813 815 815 816 817 817 817 818 818 819 819 820 820 822 822 823 823 824 825 826 826 826 826 827 828 829 830 830 831 831 830 829 829 828 827 827 828 828 829 830 830 829 829 829 828 828 828 828 828
733 736 740 743 746 748 750 754 757 760 764 767 771 774 776 779 781 783 785 787 788 789 790 791 793 794 796 797 798 800 802 804 805 806 807 809 810 811 811 812 813 813 814 814 815 816 816 817 818 818 819 819 820 821 822 822 822 823 823 824 825 826 826 827 827 828 827 827 825 825 824 825 825 825 826 827 826 824 824 824 823 823 824 824 824
730 733 736 738 741 744 748 751 754 757 761 764 767 770 772 775 777 779 781 783 784 786 787 788 790 791 793 794 795 797 799 800 801 802 803 804 805 806 807 808 809 810 810 811 812 813 813 814 814 815 815 816 817 817 818 819 819 819 819 820 821 822 822 823 823 824 824 823 822 822 822 821 821 822 822 821 819 818 819 820 819 819 821 821 821
727 730 732 734 738 742 745 748 751 754 757 760 763 766 769 772 774 775 777 778 780 782 784 786 787 788 789 790 792 794 795 795 796 797 798 800 801 802 803 804 805 807 808 808 809 810 810 811 810 811 812 813 813 814 814 815 815 815 815 816 817 818 818 818 818 818 819 818 817 817 817 816 815 816 815 813 814 815 816 816 816 816 818 818 817
723 726 728 731 735 738 741 744 747 750 752 755 758 761 764 768 770 771 773 774 776 778 780 782 783 784 786 787 788 790 790 791 791 792 794 795 797 799 800 801 802 804 805 806 806 806 807 807 807 808 809 809 809 809 810 811 811 811 812 812 812 812 812 812 812 813 814 813 811 812 812 810 809 810 809 809 810 810 810 811 811 812 814 814 812
719 722 725 728 731 734 737 740 743 745 748 751 754 757 761 764 765 767 769 770 772 774 776 777 778 780 782 783 784 785 785 786 787 789 790 791 794 796 797 798 800 801 802 802 803 803 803 804 804 805 805 805 805 806 806 806 807 807 807 807 808 808 807 807 807 808 809 808 807 807 806 805 804 804 804 804 805 805 806 807 807 807 807 807 806
715 718 721 724 727 730 733 736 739 742 744 747 751 754 758 759 761 763 765 767 769 771 771 773 775 776 778 779 779 780 780 781 783 785 786 788 790 793 794 796 797 797 798 799 799 800 800 800 801 800 801 801 802 802 803 802 803 803 803 803 804 803 803 802 801 803 803 803 802 800 799 800 799 797 797 799 800 801 802 802 802 802 802 801 798
711 714 717 720 723 726 729 732 735 738 741 744 748 751 753 755 757 760 762 765 766 767 767 769 770 772 773 774 774 775 776 777 779 781 783 784 787 789 791 793 793 794 795 795 796 796 796 797 797 796 797 797 798 799 799 799 799 799 799 799 798 798 798 796 796 798 799 798 797 794 792 795 793 790 792 795 796 796 796 796 796 796 796 794 792
706 710 713 715 718 721 724 728 731 734 737 741 744 747 749 751 753 756 759 761 761 762 763 765 766 767 769 770 771 771 771 773 775 777 779 781 783 786 788 789 790 791 791 791 792 792 792 793 793 792 792 793 794 795 795 796 796 795 794 793 792 792 791 788 788 791 792 792 791 789 787 789 788 787 789 791 791 790 790 790 790 790 791 791 791
702 705 708 711 714 717 721 724 727 730 734 737 739 741 743 745 748 751 754 756 757 759 760 761 762 763 765 766 767 767 767 768 771 773 775 778 781 783 784 785 786 787 787 788 788 788 789 789 789 788 788 788 790 791 792 793 792 791 790 788 787 786 782 778 781 785 785 785 784 783 781 783 784 783 785 787 786 785 787 788 787 788 790 789 788
698 701 703 706 710 713 717 720 723 726 729 732 734 736 738 741 744 747 750 752 753 754 755 756 757 759 761 762 763 763 763 765 768 770 772 775 778 779 781 781 782 783 783 784 784 784 785 784 784 785 784 783 786 787 788 789 788 786 786 784 784 780 772 771 777 780 778 779 779 778 777 778 779 780 780 781 780 782 784 783 781 784 786 784 782
694 696 699 702 706 709 712 715 718 721 724 727 729 732 734 737 740 743 745 747 748 749 751 752 754 756 757 758 759 760 760 763 766 768 770 773 774 776 777 778 778 778 779 780 780 779 779 780 781 781 779 779 781 782 784 785 783 782 781 780 779 772 764 767 774 774 772 774 775 774 774 773 774 775 775 774 775 777 777 773 773 777 778 776 775
690 692 696 699 702 705 708 711 714 716 719 722 725 727 730 733 736 739 741 743 744 746 749 751 752 752 753 755 756 758 759 761 764 766 767 770 771 772 774 774 774 774 775 776 775 775 775 776 777 777 776 776 777 778 779 780 778 777 776 776 772 764 760 767 770 768 768 770 769 768 767 765 765 766 765 764 766 767 766 764 766 770 770 768 769
686 689 692 695 698 701 703 706 709 712 715 717 720 723 726 729 732 735 737 739 741 743 745 747 748 749 750 752 754 756 758 760 762 762 764 766 768 769 770 769 769 770 771 771 770 770 771 772 773 773 773 772 773 774 774 774 773 772 771 770 766 760 759 764 764 762 765 766 764 763 759 755 756 756 754 755 756 756 756 756 759 761 760 758 759
683 686 689 691 694 696 699 701 704 707 710 713 716 719 722 725 728 730 733 735 737 739 741 743 744 745 747 749 751 753 755 757 758 759 760 762 763 764 765 764 765 767 767 766 766 767 767 768 768 769 769 769 769 770 770 770 770 769 767 765 762 759 759 760 758 759 763 764 762 758 753 750 749 748 747 747 746 747 747 748 749 750 748 747 749
681 683 685 688 690 692 695 698 700 704 707 710 713 716 719 722 724 727 729 732 733 735 737 739 741 742 744 746 748 750 752 753 754 754 756 757 758 759 760 760 762 763 762 762 762 763 764 765 766 766 767 767 767 767 767 767 766 765 763 761 759 757 757 755 753 755 759 760 757 751 747 745 743 741 740 740 739 740 740 740 739 739 737 737 738
679 680 683 685 687 689 692 694 697 701 704 707 710 713 716 718 721 723 726 728 730 732 734 736 738 739 741 743 745 746 748 749 749 750 751 752 754 755 756 757 759 759 758 758 760 761 762 763 763 764 764 764 764 764 763 763 762 760 759 757 756 754 753 751 748 749 751 752 750 746 742 740 738 735 734 733 731 732 732 730 729 729 730 730 730
677 678 680 682 684 686 689 692 695 698 700 704 707 710 712 715 718 720 722 725 727 729 731 733 735 736 738 740 742 744 745 745 745 746 747 749 751 752 753 755 755 756 756 756 757 759 759 760 761 761 761 761 761 760 760 759 758 757 756 754 752 751 749 746 744 743 743 743 742 739 736 734 732 728 726 724 723 722 721 720 720 723 727 729 730
675 676 677 679 681 684 687 689 692 695 698 701 704 706 709 712 715 717 720 722 724 726 728 730 732 733 736 738 740 740 741 741 742 743 744 746 748 749 751 752 753 753 754 755 756 757 757 758 758 758 758 758 757 757 756 756 755 754 752 750 749 747 745 742 740 739 738 736 735 732 729 726 723 720 718 717 715 715 715 714 715 718 722 723 723
672 674 676 678 680 682 685 688 690 693 696 698 701 703 706 708 711 714 716 718 721 722 724 727 729 731 733 736 737 738 738 739 740 741 742 744 746 747 749 750 751 752 753 754 754 755 755 755 755 754 754 754 753 753 752 751 750 749 748 746 745 743 741 739 737 735 733 730 728 726 723 720 717 714 712 711 709 707 708 707 707 708 711 712 713
670 672 674 676 678 681 683 686 689 692 695 697 699 701 703 705 708 710 712 715 717 719 722 724 726 728 731 733 734 735 736 738 739 740 741 743 744 746 747 748 749 750 751 752 752 752 753 752 752 752 752 751 751 750 749 748 747 745 744 742 741 739 738 737 735 733 730 726 724 721 718 715 712 709 705 703 700 699 698 697 696 696 698 702 704
668 670 672 675 677 679 682 685 688 691 694 696 698 700 702 704 706 707 709 712 714 716 719 721 723 726 728 730 732 734 736 737 738 740 741 742 744 745 746 747 748 749 750 750 750 750 751 750 750 750 749 749 748 747 746 745 744 742 741 740 738 736 735 733 732 729 727 724 720 716 713 710 706 702 698 695 693 692 690 688 685 685 688 692 694
667 669 671 673 676 678 681 685 687 689 692 694 697 700 702 703 705 706 708 710 711 714 716 718 720 723 725 727 729 732 734 736 737 739 740 742 743 744 745 746 747 747 748 748 748 749 749 749 749 748 748 747 746 745 744 742 741 740 739 737 735 734 732 730 728 726 723 720 716 712 708 703 698 694 691 687 684 684 683 681 678 678 680 680 680
667 669 670 672 675 678 681 684 686 688 690 693 696 699 702 703 704 706 707 709 710 712 714 715 717 720 722 725 728 730 732 734 736 738 739 741 742 743 744 745 745 746 746 747 747 747 747 747 748 747 747 746 745 744 743 742 740 739 737 735 733 732 730 728 725 722 719 716 712 707 702 697 691 686 683 678 674 674 675 673 672 673 672 671 670
668 669 671 672 675 677 680 683 685 688 690 692 695 698 701 704 705 706 707 708 710 711 713 714 717 718 720 723 727 731 733 734 736 737 739 740 741 742 743 744 744 745 745 745 746 746 746 746 746 746 746 746 745 744 743 742 741 740 738 735 733 730 728 725 722 719 716 712 708 703 698 692 686 680 676 672 668 666 665 664 663 663 662 662 661
669 670 672 673 675 677 679 682 685 688 691 693 695 697 700 704 708 710 710 710 710 711 713 715 718 720 721 723 726 729 732 734 735 737 738 740 741 742 743 743 744 744 744 744 744 745 745 745 746 746 745 744 743 743 743 742 741 740 738 736 733 729 726 724 720 717 714 709 704 699 693 686 680 673 668 664 661 658 657 656 654 653 654 654 654
670 671 672 674 676 678 680 683 686 688 691 693 696 697 699 703 708 712 714 713 714 715 716 718 720 722 724 726 727 729 731 733 735 737 738 740 741 742 742 743 743 743 744 743 743 744 745 745 745 744 744 743 743 743 742 742 741 739 738 736 733 729 726 723 720 716 712 707 702 695 688 681 674 666 660 656 653 652 651 650 648 647 648 649 650
671 672 673 674 677 679 682 684 687 689 691 693 696 698 700 702 705 709 713 715 717 719 720 722 723 724 726 728 729 730 732 734 735 737 738 740 741 742 742 742 742 743 743 743 743 744 744 744 743 743 743 743 743 743 741 740 740 738 736 734 731 728 725 722 719 715 710 705 699 692 684 676 668 661 654 650 647 647 646 644 643 643 643 644 645
672 673 674 675 677 680 683 685 687 690 693 694 696 699 702 704 706 708 711 713 717 720 722 725 726 727 728 730 731 732 733 735 736 737 739 740 741 741 742 742 742 743 743 744 743 743 742 742 743 743 744 743 743 742 741 740 739 737 735 733 730 727 724 721 717 713 709 703 697 690 682 674 666 658 652 647 645 643 642 641 641 640 639 639 639
674 675 676 677 678 681 684 686 688 690 693 695 697 699 702 706 708 710 712 714 717 720 723 726 728 730 731 732 733 734 735 736 737 738 739 740 741 742 741 741 742 743 744 743 743 742 742 743 744 744 744 743 743 742 740 739 738 736 735 732 729 726 723 720 717 713 708 703 697 691 684 675 667 658 651 646 643 642 640 639 639 638 636 635 636
675 676 677 679 680 682 685 688 690 692 693 696 698 700 704 707 710 711 714 716 718 721 724 726 729 731 732 734 735 735 736 737 738 739 740 741 742 742 742 742 743 743 743 742 742 742 743 744 744 744 744 743 742 741 739 738 737 736 734 732 729 726 723 720 717 713 709 704 698 693 687 680 672 665 656 648 642 641 641 640 639 637 635 634 636
677 677 678 679 681 684 686 689 692 694 696 698 700 702 705 709 712 714 716 718 719 722 724 726 728 730 732 734 736 736 737 738 739 740 741 741 742 742 743 743 742 742 742 742 743 743 744 745 744 744 743 742 741 740 739 738 737 735 733 732 729 726 724 721 717 714 710 705 700 696 691 685 679 672 665 656 649 646 645 644 640 636 636 640 645
680 681 681 681 682 685 688 690 693 696 698 700 703 706 708 711 713 716 717 719 720 723 725 727 729 731 732 734 736 736 737 738 739 740 741 742 742 743 742 742 741 741 742 743 744 745 745 745 744 743 743 742 741 740 739 738 736 735 734 732 729 726 724 721 719 716 712 707 702 698 694 690 684 679 673 667 662 659 656 652 646 639 637 643 653
683 684 685 684 684 688 691 693 694 697 700 703 706 708 710 711 713 716 718 720 722 724 726 728 730 732 734 735 736 736 737 738 739 741 742 742 742 742 741 741 742 743 744 745 745 746 745 744 743 742 742 742 741 740 739 738 736 735 734 732 729 727 725 723 720 718 714 709 705 701 698 694 690 685 680 677 674 672 668 664 660 653 647 648 656
686 687 688 687 687 690 694 696 698 700 703 706 708 709 712 713 715 718 720 721 723 726 728 729 731 733 735 736 737 737 738 739 740 741 742 742 742 742 742 743 744 745 745 746 746 746 745 744 743 742 742 742 742 741 739 738 736 735 733 732 730 728 726 724 722 719 716 712 708 704 701 699 695 691 688 686 683 680 677 675 673 670 666 663 665
690 690 691 691 692 693 696 700 702 702 705 707 709 711 714 716 718 719 721 723 725 727 729 731 733 735 736 737 738 739 739 740 740 741 742 742 743 744 744 745 745 746 746 746 746 745 745 744 743 743 743 742 742 740 739 738 736 734 733 732 730 729 727 725 723 721 718 715 711 707 705 703 700 696 694 693 690 687 684 682 680 680 680 680 680
694 694 695 696 697 698 700 703 704 705 707 709 711 713 716 718 719 721 722 724 727 729 731 733 735 736 737 739 740 740 740 740 741 742 743 744 745 745 745 746 746 747 747 747 746 746 745 744 743 743 743 743 742 740 738 737 736 734 733 732 731 730 728 727 725 723 720 717 714 711 708 706 704 701 699 697 695 693 691 689 687 686 686 689 690
698 698 699 700 701 703 705 706 707 709 711 712 714 717 718 720 721 722 724 727 730 732 733 735 736 737 738 739 740 740 741 742 742 743 744 745 745 746 746 747 747 747 747 747 746 745 745 744 743 743 743 743 741 740 738 737 736 734 733 732 731 730 729 727 726 724 722 719 716 713 711 709 708 706 704 702 700 698 696 694 692 692 692 694 696
702 703 704 705 706 707 709 710 712 713 714 715 717 720 721 722 724 726 728 731 733 734 736 737 737 738 739 740 740 741 742 743 744 745 745 746 746 747 747 747 747 747 747 747 746 745 744 744 744 743 743 742 741 739 738 737 735 734 733 732 731 730 729 728 727 725 723 721 718 715 714 712 711 710 708 707 705 703 701 700 698 697 697 698 699
707 708 708 709 710 712 713 714 716 716 717 719 721 723 724 726 728 729 732 733 735 736 737 737 738 739 740 741 742 743 744 745 745 746 746 747 747 748 747 747 747 747 747 746 746 746 745 745 745 744 743 742 741 739 738 737 735 734 733 732 731 730 729 728 727 725 723 721 719 717 716 714 713 712 711 710 709 707 706 705 704 703 702 703 704
710 712 713 714 714 715 717 718 719 719 721 723 724 726 728 730 731 733 735 736 737 738 739 739 740 741 742 743 744 745 746 747 747 747 748 748 748 748 748 747 747 747 747 746 746 746 747 747 746 745 744 743 741 740 739 738 736 735 733 732 732 730 729 728 727 725 723 721 720 718 717 716 715 714 713 712 711 710 709 708 707 706 706 707 707
710 713 716 717 718 719 720 721 722 723 725 726 728 730 731 733 734 736 737 738 739 740 741 741 742 743 744 745 746 747 748 749 749 749 749 749 749 748 748 747 747 747 746 746 747 747 747 747 747 746 745 743 742 740 739 738 737 736 735 734 733 732 730 729 727 725 724 722 720 719 718 717 716 715 714 713 712 711 711 710 709 709 709 709 710
709 713 717 719 721 723 724 725 726 727 729 730 732 733 734 736 737 739 740 741 742 742 743 744 745 746 747 748 749 750 750 750 751 751 750 750 749 749 748 747 747 747 747 747 748 748 748 748 747 746 745 744 743 741 740 739 738 737 736 736 735 733 732 730 728 727 725 723 721 719 718 717 716 715 715 714 713 713 712 712 711 711 711 711 712
712 715 719 722 725 727 729 729 730 732 733 733 735 736 737 739 740 741 742 743 744 744 746 747 748 749 750 751 751 752 752 752 752 752 752 751 751 750 749 749 749 749 749 749 749 749 748 748 748 747 746 745 743 742 741 740 740 739 738 737 736 735 733 731 730 728 727 725 723 721 719 718 717 716 716 715 715 714 714 713 713 712 712 712 713
717 719 723 726 729 731 733 734 735 737 737 737 738 739 740 741 743 744 745 746 747 748 750 751 751 752 753 754 754 754 754 754 754 754 753 753 752 752 751 751 751 751 751 751 750 750 749 748 748 747 746 745 744 743 743 742 741 740 739 738 737 736 734 733 731 729 728 727 725 723 721 720 719 718 717 717 717 716 716 715 714 714 714 714 714